Pella, IA

7:26 AM CDT on June 29, 2017 (GMT -0500)
Pella Municipal

Weather History for KPEA - February, 2014

Change the Weather History Date:

Tuesday, February 11, 2014

  Actual Average (KOXV) Record (KOXV)
Temperature  
Mean Temperature 3 °F -  
Max Temperature 18 °F 34 °F 66 °F (1999)
Min Temperature -12 °F 16 °F -17 °F (1981)
Degree Days  
Heating Degree Days 62    
Moisture  
Dew Point -5 °F    
Average Humidity 67    
Maximum Humidity 84    
Minimum Humidity 46    
Precipitation  
Precipitation 0.00 in - - ()
Sea Level Pressure  
Sea Level Pressure 30.41 in    
Wind  
Wind Speed 2 mph (South)    
Max Wind Speed 10 mph    
Max Gust Speed 16 mph    
Visibility 10 miles    
Events      
Averages and records for this station are not official NWS values.
T = Trace of Precipitation, MM = Missing Value Source: NWS Daily Summary

Daily Weather History Graph

Daily Weather History Graph

Search for Another Location

Airport or City:

Trip Planner

Search our weather history database for the weather conditions in past years. The results will help you decide how hot, cold, wet, or windy it might be!

Date:

Astronomy

Feb. 11, 2014 Rise Set
Actual Time 7:11 AM CST 5:40 PM CST
Civil Twilight 6:43 AM CST 6:09 PM CST
Nautical Twilight 6:10 AM CST 6:41 PM CST
Astronomical Twilight 5:38 AM CST 7:14 PM CST
Moon 3:00 PM CST (2/11) 4:50 AM CST (2/11)
Length of Visible Light 11h 26m
Length of Day
10h 28m
Waxing Gibbous, 91% of the Moon is Illuminated
Feb 11
Waxing Gibbous
Feb 14
Full
Feb 22
Last Quarter
Mar 1
New
Mar 8
First Quarter

Hourly Weather History & Observations

Time (CST) Temp. Windchill Dew Point Humidity Pressure Visibility Wind Dir Wind Speed Gust Speed Precip Events Conditions
12:15 AM -7.4 °F - -12.1 °F 80% 30.51 in 10.0 mi Calm Calm - N/A   Clear
12:35 AM -8.1 °F - -12.6 °F 81% 30.51 in 10.0 mi Calm Calm - N/A   Clear
12:55 AM -9.6 °F - -14.1 °F 81% 30.51 in 10.0 mi Calm Calm - N/A   Clear
1:15 AM -8.9 °F - -13.0 °F 82% 30.51 in 10.0 mi Calm Calm - N/A   Clear
1:35 AM -9.6 °F - -13.9 °F 81% 30.51 in 10.0 mi Calm Calm - N/A   Clear
1:55 AM -8.9 °F - -13.0 °F 82% 30.51 in 10.0 mi Calm Calm - N/A   Clear
2:15 AM -7.8 °F - -11.6 °F 84% 30.51 in 10.0 mi Calm Calm - N/A   Clear
2:35 AM -5.6 °F - -9.6 °F 83% 30.51 in 10.0 mi Calm Calm - N/A   Clear
2:55 AM -4.9 °F - -9.0 °F 82% 30.50 in 10.0 mi Calm Calm - N/A   Clear
3:15 AM -5.1 °F - -9.4 °F 82% 30.49 in 10.0 mi Calm Calm - N/A   Clear
3:35 AM -5.8 °F - -10.3 °F 81% 30.49 in 10.0 mi Calm Calm - N/A   Clear
3:55 AM -6.7 °F - -11.2 °F 81% 30.48 in 10.0 mi Calm Calm - N/A   Clear
4:15 AM -6.9 °F - -11.2 °F 81% 30.48 in 10.0 mi Calm Calm - N/A   Clear
4:35 AM -6.9 °F - -11.2 °F 81% 30.49 in 10.0 mi Calm Calm - N/A   Clear
4:55 AM -11.0 °F - -15.5 °F 80% 30.49 in 10.0 mi Calm Calm - N/A   Clear
5:15 AM -9.8 °F - -14.1 °F 81% 30.50 in 10.0 mi Calm Calm - N/A   Clear
5:35 AM -10.3 °F - -14.4 °F 82% 30.50 in 10.0 mi Calm Calm - N/A   Clear
5:55 AM -10.8 °F - -15.0 °F 82% 30.50 in 10.0 mi Calm Calm - N/A   Clear
6:15 AM -10.3 °F - -14.3 °F 83% 30.50 in 10.0 mi Calm Calm - N/A   Clear
6:35 AM -10.7 °F - -14.8 °F 82% 30.50 in 10.0 mi Calm Calm - N/A   Clear
6:55 AM -9.8 °F - -13.9 °F 82% 30.51 in 10.0 mi Calm Calm - N/A   Clear
7:15 AM -12.1 °F - -16.4 °F 81% 30.51 in 10.0 mi Calm Calm - N/A   Clear
7:35 AM -10.8 °F - -15.0 °F 82% 30.51 in 10.0 mi Calm Calm - N/A   Clear
7:55 AM -9.2 °F - -13.5 °F 81% 30.51 in 10.0 mi Calm Calm - N/A   Clear
8:15 AM -7.1 °F - -11.6 °F 81% 30.51 in 7.0 mi Calm Calm - N/A   Clear
8:35 AM -3.1 °F - -7.6 °F 81% 30.51 in 10.0 mi Calm Calm - N/A   Clear
8:55 AM -1.3 °F - -7.1 °F 77% 30.51 in 10.0 mi Calm Calm - N/A   Clear
9:15 AM -0.8 °F - -7.8 °F 72% 30.50 in 10.0 mi Calm Calm - N/A   Clear
9:35 AM -0.6 °F - -7.8 °F 72% 30.50 in 10.0 mi Calm Calm - N/A   Clear
9:55 AM 1.2 °F - -6.3 °F 71% 30.51 in 10.0 mi Calm Calm - N/A   Clear
10:15 AM 1.2 °F -8.5 °F -6.7 °F 69% 30.50 in 10.0 mi SSE 4.6 mph - N/A   Clear
10:35 AM 3.6 °F -7.3 °F -5.4 °F 66% 30.49 in 10.0 mi South 5.8 mph - N/A   Clear
10:55 AM 4.8 °F -5.8 °F -4.9 °F 64% 30.49 in 10.0 mi SSE 5.8 mph - N/A   Clear
11:15 AM 6.6 °F -2.2 °F -4.4 °F 61% 30.48 in 10.0 mi SSE 4.6 mph - N/A   Clear
11:35 AM 8.1 °F -2.0 °F -3.8 °F 58% 30.47 in 10.0 mi SSE 5.8 mph - N/A   Clear
11:55 AM 9.5 °F -1.5 °F -3.1 °F 57% 30.46 in 10.0 mi South 6.9 mph - N/A   Clear
12:15 PM 10.4 °F 2.2 °F -3.1 °F 55% 30.46 in 10.0 mi SSE 4.6 mph - N/A   Clear
12:35 PM 12.4 °F 3.1 °F -1.5 °F 54% 30.45 in 10.0 mi South 5.8 mph - N/A   Clear
12:55 PM 13.3 °F 2.0 °F -0.9 °F 53% 30.44 in 10.0 mi South 8.1 mph - N/A   Clear
1:15 PM 14.4 °F 5.5 °F -0.2 °F 52% 30.42 in 10.0 mi SSW 5.8 mph - N/A   Clear
1:35 PM 15.6 °F 4.0 °F -0.6 °F 49% 30.40 in 10.0 mi SSW 9.2 mph - N/A   Clear
1:55 PM 17.4 °F 7.1 °F 0.7 °F 48% 30.39 in 10.0 mi SSW 8.1 mph - N/A   Clear
2:15 PM 17.1 °F 6.6 °F 0.3 °F 48% 30.38 in 10.0 mi SSW 8.1 mph - N/A   Clear
2:35 PM 18.5 °F 8.4 °F 1.8 °F 48% 30.36 in 10.0 mi South 8.1 mph - N/A   Clear
2:55 PM 18.1 °F 10.0 °F 0.5 °F 46% 30.36 in 10.0 mi South 5.8 mph - N/A   Clear
3:15 PM 18.5 °F 8.4 °F 1.2 °F 47% 30.34 in 10.0 mi South 8.1 mph - N/A   Clear
3:35 PM 17.6 °F 8.2 °F 1.0 °F 48% 30.33 in 10.0 mi SSE 6.9 mph - N/A   Clear
3:55 PM 17.6 °F 8.2 °F 0.7 °F 48% 30.33 in 10.0 mi SSE 6.9 mph - N/A   Clear
4:15 PM 17.4 °F 9.1 °F 0.9 °F 48% 30.32 in 10.0 mi SSE 5.8 mph - N/A   Clear
4:35 PM 16.7 °F 7.2 °F 1.2 °F 51% 30.31 in 10.0 mi SSE 6.9 mph - N/A   Clear
4:55 PM 16.2 °F 7.6 °F 0.5 °F 50% 30.30 in 10.0 mi SSE 5.8 mph - N/A   Clear
5:15 PM 15.1 °F 4.2 °F 0.5 °F 53% 30.30 in 10.0 mi SSE 8.1 mph - N/A   Clear
5:35 PM 13.6 °F - 0.3 °F 55% 30.30 in 10.0 mi Calm Calm - N/A   Clear
5:55 PM 12.4 °F - -0.4 °F 57% 30.29 in 10.0 mi Calm Calm - N/A   Clear
6:15 PM 11.8 °F - -0.6 °F 58% 30.30 in 10.0 mi Calm Calm - N/A   Clear
6:35 PM 12.4 °F - 0.3 °F 59% 30.29 in 10.0 mi Calm Calm - N/A   Mostly Cloudy
6:55 PM 13.5 °F - 1.8 °F 60% 30.29 in 10.0 mi Calm Calm - N/A   Overcast
7:15 PM 13.6 °F - 2.1 °F 60% 30.28 in 10.0 mi Calm Calm - N/A   Overcast
7:35 PM 13.5 °F - 1.9 °F 60% 30.28 in 10.0 mi Calm Calm - N/A   Overcast
7:55 PM 13.3 °F 5.6 °F 1.9 °F 61% 30.27 in 10.0 mi SSE 4.6 mph - N/A   Overcast
8:15 PM 13.1 °F 5.4 °F 2.3 °F 62% 30.27 in 10.0 mi SSE 4.6 mph - N/A   Overcast
8:35 PM 13.1 °F 5.4 °F 2.8 °F 64% 30.27 in 10.0 mi SSE 4.6 mph - N/A   Overcast
8:55 PM 13.5 °F 4.4 °F 3.7 °F 65% 30.27 in 10.0 mi South 5.8 mph - N/A   Overcast
9:15 PM 13.6 °F 3.5 °F 3.6 °F 64% 30.27 in 10.0 mi South 6.9 mph - N/A   Overcast
9:35 PM 12.9 °F 3.8 °F 3.2 °F 65% 30.26 in 10.0 mi SSE 5.8 mph - N/A   Mostly Cloudy
9:55 PM 14.0 °F 2.0 °F 3.7 °F 64% 30.26 in 10.0 mi South 9.2 mph - N/A   Overcast
10:15 PM 14.4 °F 2.4 °F 4.1 °F 64% 30.25 in 10.0 mi South 9.2 mph - N/A   Overcast
10:35 PM 14.5 °F 2.7 °F 4.5 °F 64% 30.25 in 10.0 mi South 9.2 mph - N/A   Overcast
10:55 PM 14.9 °F 4.0 °F 4.1 °F 62% 30.25 in 10.0 mi South 8.1 mph - N/A   Overcast
11:15 PM 14.9 °F 3.1 °F 3.7 °F 61% 30.23 in 10.0 mi South 9.2 mph 16.1 mph N/A   Overcast
11:35 PM 14.7 °F 2.1 °F 3.2 °F 60% 30.23 in 10.0 mi South 10.4 mph - N/A   Overcast
11:55 PM 14.7 °F 3.8 °F 3.2 °F 60% 30.23 in 10.0 mi South 8.1 mph - N/A   Overcast